KB2FWP Weather Reports


Display with metric or nautical units.
time (UTC)temp
F
wind
direction
speed
MPH
gust
MPH
rain 1hr
in
rain 24hr
in
rain mn
in
humidity
%
barometer
mb
20260504213050 57 183 9.0 21.0 0.00 0.00 0.00 80 1012.1
20260504211538 57 216 10.0 20.0 0.00 0.00 0.00 80 1012.1
20260504210040 57 181 11.0 23.0 0.00 0.00 0.00 78 1012.1
20260504204544 58 215 12.0 20.0 0.00 0.00 0.00 77 1012.0
20260504203041 58 193 11.0 19.0 0.00 0.00 0.00 77 1012.0
20260504201534 58 208 11.0 18.0 0.00 0.00 0.00 76 1012.0
20260504200034 59 178 10.0 24.0 0.00 0.00 0.00 76 1012.3
20260504194532 59 216 11.0 19.0 0.00 0.00 0.00 75 1012.4
20260504193030 59 196 12.0 20.0 0.00 0.00 0.00 75 1012.6
20260504191529 58 173 11.0 22.0 0.00 0.00 0.00 76 1012.7
20260504190028 59 225 12.0 25.0 0.00 0.00 0.00 75 1012.8
20260504184527 59 196 13.0 20.0 0.00 0.00 0.00 74 1012.9
20260504183024 59 196 10.0 20.0 0.00 0.00 0.00 74 1013.1
20260504181521 59 185 10.0 20.0 0.00 0.00 0.00 74 1013.2
20260504180020 59 210 11.0 21.0 0.00 0.00 0.00 74 1013.4
20260504174518 59 208 10.0 18.0 0.00 0.00 0.00 76 1013.5
20260504173015 59 189 9.0 22.0 0.00 0.00 0.00 76 1013.5
20260504171513 59 160 10.0 19.0 0.00 0.00 0.00 76 1013.7
20260504081507 50 218 4.0 9.0 0.00 0.00 0.00 69 1015.0
20260504044556 50 238 5.0 10.0 0.00 0.00 0.00 73 1014.1
20260504043050 51 251 3.0 9.0 0.00 0.00 0.00 72 1014.1
20260504041543 51 241 3.0 10.0 0.00 0.00 0.00 69 1014.1
20260504040054 52 178 2.0 8.0 0.00 0.00 0.00 66 1014.0
20260504034551 51 253 3.0 9.0 0.00 0.00 0.00 67 1013.9
20260504033037 52 231 3.0 9.0 0.00 0.00 0.00 70 1013.8
20260504031535 53 210 2.0 8.0 0.00 0.00 0.00 65 1013.8
20260504030037 52 224 4.0 9.0 0.00 0.00 0.00 66 1013.7
20260504024535 52 254 4.0 8.0 0.00 0.00 0.00 67 1013.7
20260504023034 53 237 2.0 7.0 0.00 0.00 0.00 65 1013.9
20260504021532 52 236 2.0 7.0 0.00 0.00 0.00 64 1013.8
20260504020033 53 223 2.0 4.0 0.00 0.00 0.00 62 1013.8
20260504014530 53 255 2.0 7.0 0.00 0.00 0.00 61 1013.7
20260504013033 54 248 1.0 4.0 0.00 0.00 0.00 56 1013.5
20260504011527 54 239 2.0 6.0 0.00 0.00 0.00 50 1013.4
20260504010025 55 260 0.0 2.0 0.00 0.00 0.00 39 1013.1
20260504004524 56 260 0.0 2.0 0.00 0.00 0.00 37 1012.9
20260504003022 56 261 1.0 3.0 0.00 0.00 0.00 36 1012.8
20260504001520 57 243 1.0 5.0 0.00 0.00 0.00 35 1012.5
20260504000020 58 295 4.0 10.0 0.00 0.00 0.00 34 1012.4
20260503234519 58 279 5.0 12.0 0.00 0.00 0.00 33 1012.3
20260503233019 59 297 7.0 14.0 0.00 0.00 0.00 32 1012.1
20260503231521 60 293 8.0 15.0 0.00 0.00 0.00 30 1011.9
20260503230022 60 312 9.0 19.0 0.00 0.00 0.00 30 1011.8
20260503224516 60 277 11.0 24.0 0.00 0.00 0.00 30 1011.7
20260503223016 61 302 11.0 22.0 0.00 0.00 0.00 30 1011.7
20260503221515 60 322 15.0 23.0 0.00 0.00 0.00 30 1011.6
20260503220014 61 301 11.0 19.0 0.00 0.00 0.00 30 1011.5
20260503214513 61 312 15.0 29.0 0.00 0.00 0.00 30 1011.6